Location: Homewood
(41.1836°S, 175.9581°E)
Time: 02:26:48
(UTC+00:00)

NOSS 3-3 (C) - Pass Details

Date: 18 April 2024
Orbit: 747 x 1468 km, 63.4° (Epoch: 01 April)

Event Time Altitude Azimuth Distance (km) Brightness Sun altitude
Exits shadow 16:50:43 36° 331° (NNW) 1,290 4.3 -23.2°
Drops below altitude 10° 16:54:19 10° 5° (N) 2,338 6.0 -22.5°
Sets 16:56:42 0° 12° (NNE) 3,217 6.8 -22.1°
